User: anonymous   Login
Location: Bittelbronn
(48.4454°N, 8.5870°E)
Time: 10:07:44
(UTC+00:00)
Language:

Cosmos 968 Rocket - Orbit

View from above orbital plane
View from above orbital plane
View from above satellite
View from above satellite

Ground track
Ground track

The orbit data is extracted from the following two-line orbital elements,

1 10521U 77119B   24197.92916384  .00000501  00000-0  16173-3 0  9996
2 10521  74.0264 159.7939 0022106 262.4811  97.3833 14.41603185444370
Epoch (UTC): 15 July 2024 22:17:59
Eccentricity: 0.0022106
inclination: 74.0264°
perigee height: 737 km
apogee height: 769 km
right ascension of ascending node: 159.7939°
argument of perigee: 262.4811°
revolutions per day: 14.41603185
mean anomaly at epoch: 97.3833°
orbit number at epoch: 44437

The dashed part of the orbit path shows where the satellite is in the earth's shadow,  

DLR